Location: Bukit Nyuki
(2.5885°N, 113.7476°E)
Time: 17:19:06
(UTC+00:00)

Meteor 2-13 Rocket - Pass Details

Date: 18 May 2021
Orbit: 936 x 957 km, 82.5° (Epoch: 20 June)

Event Time Altitude Azimuth Distance (km) Brightness Sun altitude
Exits shadow 20:31:01 24° 180° (S) 1,831 5.7 -24.9°
Maximum altitude 20:34:50 84° 94° (E) 947 4.4 -24.0°
Drops below altitude 10° 20:40:54 10° 6° (N) 2,648 7.1 -22.6°
Sets 20:43:22 0° 5° (N) 3,593 7.8 -22.0°
